Regional Weather Roundup
Issued by NWS Bismarck, ND

Home | Current Version | Previous Version | Text Only | Print | Product List | Glossary On
Versions: 1 2 3 4 5 6 7 8 9 10 11 12 13 14 15 16 17 18 19 20 21 22 23 24 25 26 27 28 29 30 31 32 33 34 35 36 37 38 39 40 41 42 43 44 45 46 47 48 49 50
000
ASUS43 KBIS 191859
RWRBIS

NWR BROADCAST TEXT
NATIONAL WEATHER SERVICE BISMARCK ND
200 PM CDT FRI SEP 19 2014

NOTE: "FAIR" INDICATES FEW OR NO CLOUDS BELOW 12,000 FEET WITH NO
SIGNIFICANT WEATHER AND/OR OBSTRUCTIONS TO VISIBILITY.


CITY           SKY/WX    TMP DP  RH WIND       PRES   REMARKS
WILLISTON      SUNNY     79  48  33 W23G32    29.67R
MINOT          SUNNY     81  47  30 SW23G31   29.56S
MINOT AFB      NOT AVBL
BISMARCK       SUNNY     86  52  30 W21       29.65S
DICKINSON      NOT AVBL
GARRISON         N/A     82  49  31 W21G31    29.61S
HETTINGER ARPT SUNNY     80  47  31 W22G28    29.77R
JAMESTOWN      NOT AVBL
BEACH            N/A     73  48  40 W20G25    29.77S
CARRINGTON     FAIR      81  57  44 W16G23    29.58F
CROSBY         FAIR      72  54  53 NW15G22   29.64R
HARVEY         FAIR      81  50  34 W18G24    29.58R
HAZEN          FAIR      81  48  32 W17G25    29.64S
LINTON         FAIR      82  55  39 NW15      29.66S
OAKES            N/A     73  66  78 SW13G18   29.62F
WATFORD CITY   FAIR      81  46  30 W23G32    29.64S
$$

CITY           SKY/WX    TMP DP  RH WIND       PRES   REMARKS
GRAND FORKS    PTSUNNY   75  66  73 S16       29.52F
GRAND FORKS AF NOT AVBL
DEVILS LAKE    SUNNY     77  57  50 W14       29.53F
FARGO          CLOUDY    73  64  73 S15       29.59F
CAVALIER       FAIR      75  63  64 S6        29.50R
GRAFTON        FAIR      73  64  73 S13       29.51R
GWINNER        CLEAR     75  64  69 SW15      29.62F
LANGDON        FAIR      77  59  53 SW14      29.53S
ROLLA          FAIR      75  55  50 W16G25    29.54R
$$

CITY           SKY/WX    TMP DP  RH WIND       PRES   REMARKS
ABERDEEN       CLOUDY    72  65  78 SW8       29.65F
MOBRIDGE       MOSUNNY   81  61  50 NW10      29.66S
RAPID CITY     MOSUNNY   82  51  34 N16       29.83S
GLASGOW        MOSUNNY   74  49  41 NW15G21   29.76R
SIDNEY         MOSUNNY   81  48  32 W22G30    29.71S
WOLF POINT     MOSUNNY   77  53  43 NW15G23   29.73R
GLENDIVE       MOSUNNY   75  50  41 W23G31    29.78S
MILES CITY     MOSUNNY   78  47  33 NW21G29   29.81F
BAKER          SUNNY     76  48  37 W23G31    29.81S
$$

CITY           SKY/WX    TMP DP  RH WIND       PRES   REMARKS
BILLINGS       PTSUNNY   77  46  33 N17G29    29.91F
GREAT FALLS    SUNNY     71  42  35 W23G35    29.91S
$$



USA.gov is the U.S. government's official web portal to all federal, state and local government web resources and services.